Location: Darlington Observatory
(36.4817°N, 105.8156°W)
Time: 01:03:24
(UTC-06:00)

Daily predictions for brighter satellites

Satellite Brightness Start Highest point End
(mag) Time Altitude Azimuth Time Altitude Azimuth Time Altitude Azimuth
Tsikada Rocket 4.3 00:08:12 54° E 00:08:12 54° E 00:14:23 10° NNE
CZ-2C R/B 3.6 00:09:06 57° ENE 00:09:11 57° ENE 00:14:48 10° N
Cosmos 1633 Rocket 4.3 00:10:53 38° NNE 00:10:53 38° NNE 00:13:39 10° NNE
Lacrosse 5 2.8 00:05:16 10° NW 00:08:49 39° W 00:08:49 39° W
H-2A R/B 4.1 00:14:45 19° W 00:14:45 19° W 00:17:13 10° NW
ARGOS Delta rocket 4.5 00:22:39 10° N 00:27:35 55° WNW 00:27:35 55° WNW
Cosmos 968 Rocket 3.9 00:33:50 58° NNE 00:33:50 58° NNE 00:38:05 10° NNE
Cosmos 1816 Rocket 4.4 00:35:05 76° E 00:35:05 76° E 00:41:20 10° N
CZ-2C R/B 2.8 00:32:35 10° N 00:37:21 66° NNW 00:37:21 66° NNW
Cosmos 540 Rocket 4.4 00:37:09 10° NNW 00:40:59 41° WNW 00:40:59 41° WNW
Cosmos 2278 Rocket 3.7 00:45:15 25° ENE 00:45:15 25° ENE 00:48:33 10° NE
Cosmos 1844 4.1 00:49:46 53° ENE 00:49:46 53° ENE 00:54:15 10° NNE
ALOS 2 4.1 01:00:27 32° NW 01:00:27 32° NW 01:03:02 10° NNW
COSMOS 2406 3.4 00:55:50 10° NNW 01:01:04 68° NNE 01:01:04 68° NNE
CZ-4B R/B 4.2 01:05:33 17° NNE 01:05:33 17° NNE 01:06:41 10° N
CZ-4C R/B 2.6 01:08:02 53° NW 01:08:02 53° NW 01:13:43 10° NNE
Meteor 2-10 Rocket 3.9 01:03:39 10° N 01:08:12 64° NNW 01:08:12 64° NNW
Meteor 2-3 Rocket 3.8 01:19:12 75° NNE 01:19:12 75° NNE 01:24:32 10° N
ATLAS 3B R/B 4.1 01:28:26 26° ESE 01:28:30 26° ESE 01:34:16 10° ENE
Cosmos 773 Rocket 4.4 01:28:52 10° NNW 01:33:10 61° NNW 01:33:10 61° NNW
Cosmos 1844 Rocket 3.7 01:39:30 34° WNW 01:39:54 34° WNW 01:44:57 10° N
Cosmos 1634 Rocket 4.2 01:34:57 10° NNW 01:40:47 59° W 01:40:47 59° W
Timation 1 Rocket 4.4 01:43:06 71° E 01:43:06 71° E 01:48:42 10° NNE
Cosmos 1680 Rocket 4.1 01:40:36 10° N 01:45:44 52° ENE 01:45:44 52° ENE
Aureole 3 4.4 01:53:14 65° WNW 01:53:14 65° WNW 01:58:24 10° N
Cosmos 2180 Rocket 4.3 01:53:41 10° N 02:00:01 89° W 02:00:23 81° S
Cosmos 1898 Rocket 4.1 02:03:10 47° E 02:03:10 47° E 02:07:42 10° NNE
SeaSat 1 3.9 02:05:50 24° E 02:07:44 33° ENE 02:12:07 10° N
Cosmos 1607 3.8 02:08:10 76° SE 02:08:19 76° ESE 02:14:34 10° NNE
Cosmos 1606 4.4 02:08:56 10° N 02:11:04 32° N 02:11:04 32° N
CZ-2D R/B 4.2 02:11:05 10° NE 02:14:25 16° E 02:15:54 15° ESE
Cosmos 1340 4.4 02:15:24 10° NNE 02:18:02 29° NE 02:18:02 29° NE
USA 238 DEB 4.3 02:18:44 39° SE 02:19:42 41° ESE 02:26:09 10° NE
USA 238 4.3 02:18:50 39° SE 02:19:49 41° ESE 02:26:15 10° NE
H-2A R/B 3.8 02:16:54 10° N 02:20:19 37° NW 02:20:19 37° NW
Cosmos 1932 4.4 02:24:57 69° SW 02:25:50 83° WNW 02:32:25 10° NNE
Cosmos 2278 Rocket 3.1 02:27:04 34° WNW 02:27:42 35° WNW 02:32:52 10° N
Cosmos 858 Rocket 4.4 02:31:31 80° E 02:31:31 80° E 02:36:39 10° NNE
Nadezhda 4 Rocket 4.0 02:35:13 58° WSW 02:35:58 63° W 02:42:14 10° N
IRS-P3 4.1 02:32:30 10° NNE 02:37:50 69° ESE 02:38:19 65° SE
COSMOS 2487 4.1 02:34:47 10° N 02:37:16 34° NNE 02:37:16 34° NNE
Cosmos 2369 Rocket 4.2 02:36:24 15° ESE 02:38:15 17° E 02:41:44 10° ENE
Cosmos 1833 Rocket 2.9 02:33:18 10° NNW 02:38:57 68° ENE 02:40:32 47° SE
NPP 3.7 02:34:51 10° NNE 02:40:13 67° ESE 02:40:50 61° SE
GP-B 3.5 02:37:35 10° NNE 02:41:55 55° E 02:41:55 55° E
Cosmos 2297 3.9 02:46:52 52° W 02:47:33 56° WNW 02:53:08 10° NNE
Cosmos 2298 Rocket 3.9 02:48:05 73° WSW 02:48:26 76° WNW 02:53:45 10° NNE
SL-16 R/B 3.5 02:46:39 16° SE 02:51:19 44° ENE 02:57:12 10° N
Cosmos 1825 4.4 02:56:02 18° NW 02:56:02 18° NW 02:57:42 10° NNW
Cosmos 1733 Rocket 3.7 02:56:07 45° NW 02:56:07 45° NW 02:59:49 10° N
Cosmos 2150 Rocket 4.1 02:59:34 61° WSW 03:00:17 68° WNW 03:05:44 10° NNE
NOSS 3-2 (A) 4.4 02:58:42 29° SE 03:00:26 35° ESE 03:06:04 10° NE
USA 267 3.9 02:55:13 10° ENE 03:01:21 41° SE 03:03:11 34° SSE
Cosmos 2082 Rocket 2.1 02:58:21 10° NNW 03:03:56 69° WSW 03:04:46 59° SSW
ADEOS Rocket 3.4 03:01:22 10° NNE 03:09:01 86° ESE 03:12:01 39° S
Cosmos 2344 4.2 03:05:50 29° SSE 03:09:18 46° ESE 03:16:54 10° NE
Cosmos 44 4.2 03:10:25 32° WNW 03:10:59 33° NW 03:15:06 10° N
Sich 1 Rocket 3.5 03:16:13 68° SW 03:16:39 75° W 03:21:14 10° N
ATLAS 3B R/B 3.1 03:15:40 36° WSW 03:18:46 62° NW 03:25:56 10° NNE
BREEZE-M DEB (TANK) 4.5 03:12:10 10° WNW 03:18:57 41° N 03:21:59 10° E
Exosat Rocket 4.1 03:13:28 10° NNW 03:19:12 65° WSW 03:23:03 30° S
Okean 3 3.3 03:19:42 10° N 03:23:56 73° W 03:24:11 70° SW
ERS-1 4.5 03:19:22 10° NNE 03:24:35 85° ESE 03:26:15 45° S
AQUA 4.1 03:20:59 10° N 03:25:36 51° WNW 03:26:22 46° WSW
S3M 4.2 03:19:41 10° N 03:25:50 65° E 03:30:19 19° SSE
ADEOS 3.7 03:21:44 10° NNE 03:26:57 68° ESE 03:29:02 36° S
Gbstr 26 Del rocket 4.3 03:27:41 23° SE 03:27:41 23° SE 03:30:38 10° ENE
Cosmos 1674 Rocket 4.4 03:24:10 10° NNW 03:27:55 35° W 03:27:55 35° W
Cosmos 1633 4.2 03:29:00 23° SE 03:30:18 30° E 03:33:31 10° NNE
Cosmos 1937 Rocket 4.4 03:30:03 30° W 03:31:10 33° WNW 03:35:49 10° N
Cosmos 1417 Rocket 4.4 03:26:27 10° N 03:32:35 84° W 03:35:57 29° S
Cosmos 1908 Rocket 4.1 03:35:31 40° W 03:35:55 41° W 03:40:07 10° N
Milstar 3 4.3 03:33:10 26° S 03:37:18 35° SSE 03:50:19 10° E
Timation 2 Rocket 3.9 03:31:22 10° NNW 03:37:23 63° WSW 03:41:04 25° S
Resurs 1-4 Rocket 2.1 03:33:44 10° N 03:39:04 76° WNW 03:41:09 38° SSW
COBE Rocket 4.3 03:35:06 10° N 03:39:43 48° WNW 03:41:00 38° WSW
Geosat 4.5 03:35:47 10° NNE 03:40:36 48° WNW 03:42:20 34° WSW
MOS 1 Rocket 3.9 03:38:58 10° NNE 03:44:17 62° E 03:47:19 24° S
Okean 2 Rocket 3.0 03:42:49 42° S 03:44:18 89° WNW 03:48:43 10° N
SeaSat 1 3.4 03:45:36 29° W 03:45:36 29° W 03:49:28 10° NW
OAO 1 4.5 03:44:54 35° WSW 03:47:08 67° S 03:52:35 10° E
Cosmos 1378 Rocket 4.1 03:45:52 10° NNW 03:49:52 38° W 03:50:20 37° WSW
Delta 2 Rocket 4.1 03:53:06 36° SW 03:54:03 39° SSW 03:58:24 10° SE
Cosmos 1125 Rocket 3.5 03:51:59 33° SSW 03:54:28 81° WNW 03:59:47 10° NNE
CZ-2D R/B 2.4 03:49:30 10° N 03:54:45 55° WNW 03:57:14 30° SW
Cosmos 1782 Rocket 4.2 03:57:33 33° WSW 03:58:43 40° W 04:02:57 10° N
ARIANE 5 R/B 2.7 03:54:14 10° N 03:59:05 53° WNW 04:01:18 30° SW
CZ-2D R/B 3.7 03:54:48 10° NNE 03:59:13 72° ESE 04:01:48 24° S
UNKNOWN OBJECT B 2.5 04:00:21 10° N 04:04:05 83° WNW 04:05:37 34° SSW
Cosmos 1553 Rocket 4.2 03:57:53 10° NNW 04:04:06 57° W 04:08:29 20° SSW
H-2A R/B 4.0 03:30:30 10° WSW 04:08:03 60° S 04:13:50 10° E
IRS-1D 4.2 04:04:35 10° N 04:09:15 38° WNW 04:11:33 24° WSW
Cosmos 1346 3.3 04:10:42 10° NNW 04:13:10 39° W 04:13:10 39° W
PSLV R/B 3.1 04:13:23 39° SW 04:14:24 68° SSE 04:17:42 10° ENE
Centaur D AC-25 4.1 03:54:25 10° WSW 04:14:45 48° S 04:19:41 10° ESE
Meteor 1-18 Rocket 4.4 04:09:36 10° NNW 04:14:59 52° W 04:19:04 17° SSW
Okean O Rocket 3.5 04:13:59 10° NE 04:17:40 26° E 04:21:22 10° SSE
Cosmos 1437 4.0 04:15:55 10° NW 04:18:37 24° W 04:18:39 24° W
Cosmos 1943 Rocket 2.3 04:14:38 18° SSW 04:18:58 74° ESE 04:24:36 10° NNE
Cosmos 2369 Rocket 2.4 04:18:13 22° SW 04:21:42 56° WNW 04:27:15 10° NNE
Cosmos 1833 Rocket 4.4 04:19:28 10° WNW 04:22:09 14° W 04:22:09 14° W
Cosmos 405 Rocket 2.7 04:18:35 10° NNW 04:22:31 61° W 04:25:28 16° S
Cosmos 1269 Rocket 4.0 04:21:14 10° NNW 04:26:33 76° WSW 04:31:48 10° S
BREEZE-M R/B 4.0 04:21:57 10° NW 04:26:59 43° NNE 04:29:51 10° E
Cosmos 1812 4.1 04:24:53 10° NW 04:27:51 21° W 04:28:43 20° WSW
Meteor 1-19 Rocket 4.4 04:23:21 10° N 04:28:59 77° E 04:34:41 10° SSE
Cosmos 1975 Rocket 4.3 04:27:47 10° NW 04:31:15 24° W 04:32:55 19° WSW
USA 161 1.0 04:29:37 16° SSE 04:31:18 81° ENE 04:33:47 10° N
COSMOS 2455 2.8 04:27:29 17° SSW 04:32:16 86° WNW 04:38:20 10° NNE
Cosmos 2151 Rocket 3.8 04:29:13 18° SSW 04:32:21 53° W 04:36:48 10° N
ADEOS II 2.7 04:29:29 10° NNE 04:34:41 56° E 04:39:49 10° S
SL-16 R/B 3.5 04:31:45 17° SW 04:35:03 26° W 04:40:10 10° NW
Cosmos 1536 2.9 04:34:08 10° S 04:38:05 75° E 04:42:04 10° N
Cosmos 2263 4.5 04:34:11 17° SW 04:38:39 58° WNW 04:44:23 10° NNE
CZ-3B DEB 4.0 04:27:06 10° NW 04:39:36 55° WSW 04:49:13 10° SSE
Cosmos 1656 Rocket 4.5 04:35:37 10° S 04:40:44 46° ESE 04:45:54 10° NE
USA 267 3.8 04:38:05 10° NE 04:44:22 52° NW 04:50:31 11° WSW
Cosmos 1602 4.5 04:43:35 16° SW 04:46:17 36° W 04:49:57 10° NNW
Cosmos 158 Rocket 4.3 04:44:15 10° NNW 04:49:00 41° WSW 04:53:37 10° S
ASTRO E2 3.4 04:46:57 15° WSW 04:49:49 37° S 04:53:31 10° ESE
NOSS 3-2 (C) 4.0 04:45:13 14° WSW 04:50:15 48° NW 04:56:34 10° NNE
NOSS 3-2 (A) 4.4 04:46:06 12° WSW 04:51:09 37° NW 04:57:10 10° NNE
Cosmos 1536 Rocket 3.9 04:49:46 10° NNW 04:54:04 47° W 04:58:19 10° SSW
Cosmos 1025 Rocket 4.1 04:52:37 10° N 04:56:54 48° E 05:01:08 10° SSE
Cosmos 1238 Rocket 4.5 04:55:15 10° NNE 04:57:54 27° E 05:00:47 10° SE
PSLV R/B 3.6 04:55:48 10° N 04:59:30 70° WNW 05:03:10 10° SSW
Cosmos 2315 Rocket 4.2 04:57:25 10° NNW 05:03:31 53° W 05:09:31 10° SSW
IRS-1C Rocket 4.3 05:02:44 10° NNE 05:08:01 77° ESE 05:13:16 10° S
CENTAUR R/B 2.6 05:02:14 10° SSW 05:08:05 78° ESE 05:14:46 10° NE
PSLV R/B 3.5 05:05:39 10° N 05:09:54 82° WNW 05:14:11 10° SSW
Okean 1-7 Rocket 3.8 05:07:00 10° N 05:11:29 78° E 05:15:54 10° S
Gbstr 26 Del rocket 3.8 05:10:50 10° W 05:14:16 34° NNW 05:17:49 10° NE
USA 234 4.5 05:10:26 10° ESE 05:16:39 48° NE 05:22:52 10° NW
DNEPR-1 R/B 4.1 05:12:38 10° SSW 05:18:25 81° ESE 05:23:14 10° NNE
SL-08 R/B 4.5 05:12:51 10° S 05:18:56 78° W 05:25:07 10° N
Okean 1 Rocket 3.6 05:16:44 10° SSW 05:20:58 41° W 05:25:12 10° N
